User: anonymous   Login
Location: Observatoire
(46.1952°N, 5.3391°E)
Time: 20:12:44
(UTC+02:00)
Language:

TIGRISAT - Orbit

View from above orbital plane
View from above orbital plane
View from above satellite
View from above satellite

Ground track
Ground track

The orbit data is extracted from the following two-line orbital elements,

1 40043U 14033AK  24113.44996097  .00007784  00000-0  10440-2 0  9998
2 40043  97.6897 278.6223 0056923 124.5745 236.0856 14.78487064529524
Epoch (UTC): 22 April 2024 10:47:56
Eccentricity: 0.0056923
inclination: 97.6897°
perigee height: 594 km
apogee height: 674 km
right ascension of ascending node: 278.6223°
argument of perigee: 124.5745°
revolutions per day: 14.78487064
mean anomaly at epoch: 236.0856°
orbit number at epoch: 52952

The dashed part of the orbit path shows where the satellite is in the earth's shadow,  

DLR